Location: Bluff Heights
(33.7692°N, 118.1592°W)
Time: 10:40:28
(UTC+00:00)

Tiros 1 - Pass Details

Date: 31 July 2021
Orbit: 630 x 663 km, 48.4° (Epoch: 22 September)

Event Time Altitude Azimuth Distance (km) Brightness Sun altitude
Rises 01:16:38 0° 222° (SW) 2,977 11.0 18.6°
Reaches altitude 10° 01:19:00 10° 219° (SW) 2,066 10.2 18.1°
Maximum altitude 01:23:43 65° 138° (SE) 722 7.5 17.2°
Drops below altitude 10° 01:28:26 10° 57° (ENE) 2,060 9.4 16.2°
Sets 01:30:47 0° 55° (NE) 2,968 10.2 15.7°
